Location: Black Swamp Observatory
(41.3920°N, 84.1250°W)
Time: 16:35:34
(UTC-05:00)

ISS - Visible Passes

Search period start: 01 December 2021 00:00
Search period end: 11 December 2021 00:00
Orbit: 417 x 423 km, 51.6° (Epoch: 01 December)

Date Brightness Start Highest point End Pass type
(mag) Time Alt. Az. Time Alt. Az. Time Alt. Az.
01 Dec -1.7 18:57:47 10° NW 18:59:22 19° NNW 18:59:22 19° NNW visible
02 Dec -2.0 18:10:42 10° NNW 18:13:12 19° NNE 18:14:14 17° NE visible
02 Dec -0.5 19:47:07 10° NW 19:47:13 11° NW 19:47:13 11° NW visible
03 Dec -2.5 18:59:58 10° NW 19:02:10 32° NNW 19:02:10 32° NNW visible
04 Dec -2.8 18:12:52 10° NW 18:15:57 30° NNE 18:17:15 23° ENE visible
04 Dec -0.6 19:49:37 10° WNW 19:50:16 14° WNW 19:50:16 14° WNW visible
05 Dec -3.5 19:02:18 10° WNW 19:05:33 68° WSW 19:05:33 68° WSW visible
06 Dec -3.8 18:15:04 10° NW 18:18:28 71° NNE 18:21:05 16° ESE visible
06 Dec -0.5 19:53:04 10° W 19:54:08 13° WSW 19:54:08 13° WSW visible
07 Dec -1.4 19:05:05 10° W 19:07:50 23° SW 19:10:04 13° S visible
08 Dec -2.3 18:17:31 10° WNW 18:20:43 38° SW 18:23:53 10° SSE visible
10 Dec -0.4 18:20:57 10° W 18:22:42 13° SW 18:24:26 10° SSW visible
